Location: Home
(42.5358°N, 72.7383°W)
Time: 05:35:27
(UTC-05:00)

Courier 1B - Pass Details

Date: 07 December 2021
Orbit: 962 x 1209 km, 28.3° (Epoch: 25 January)

Event Time Altitude Azimuth Distance (km) Brightness Sun altitude
Rises 15:00:06 0° 228° (SW) 4,096 13.1 10.5°
Reaches altitude 10° 15:03:40 10° 215° (SW) 3,118 12.4 10.0°
Maximum altitude 15:09:20 22° 167° (SSE) 2,287 10.0 9.2°
Drops below altitude 10° 15:14:51 10° 120° (ESE) 3,024 9.9 8.5°
Sets 15:18:15 0° 106° (ESE) 3,942 10.3 8.0°
